Regional Weather Roundup
Issued by NWS Albany, NY

Home | Current Version | Previous Version | Text Only | Print | Product List | Glossary On
Versions: 1 2 3 4 5 6 7 8 9 10 11 12 13 14 15 16 17 18 19 20 21 22 23 24 25 26 27 28 29 30 31 32 33 34 35 36 37 38 39 40 41 42 43 44 45 46 47 48 49 50
643
ASUS41 KALY 050710
RWRALY

NEW YORK STATE HOURLY WEATHER ROUNDUP
NATIONAL WEATHER SERVICE ALBANY NY
200 AM EST FRI FEB 05 2016

NOTE: "FAIR" INDICATES FEW OR NO CLOUDS BELOW 12,000 FEET WITH NO
SIGNIFICANT WEATHER AND/OR NO OBSTRUCTIONS TO VISIBILITY.

NYZ032-033-038>043-046>054-057>066-NYZ062>081-050800-
EAST


CITY           SKY/WX    TMP DP  RH WIND       PRES   REMARKS
ALBANY         CLOUDY    35  24  64 W14       30.13S WCI  26
GLENS FALLS    CLOUDY    35  23  61 CALM      30.11F
POUGHKEEPSIE   CLOUDY    40  26  57 N14       30.06F WCI  32
MONTGOMERY     CLOUDY    38  28  67 NE7       30.05F WCI  33
WHITE PLAINS   FLURRIES  39  28  64 N10       30.03F WCI  32
ISLIP          LGT RAIN  40  34  79 N5        30.03F
NEW YORK CITY  FLURRIES  41  29  62 NE14      30.04F
CENTRAL PARK   LGT RAIN  40  28  62 NE14G24   30.06F WCI  32
$$

NYZ005>009-017-018-044>046-055-056-050800-
CENTRAL


CITY           SKY/WX    TMP DP  RH WIND       PRES   REMARKS
FULTON         PTCLDY    31  23  72 N7        30.17F WCI  24
SYRACUSE       CLOUDY    31  24  75 NW6       30.16F WCI  25
ROME           CLOUDY    30  24  78 N3        30.17F
ELMIRA         CLOUDY    33  26  75 CALM      30.13F
BINGHAMTON     CLOUDY    30  23  75 N8        30.09S WCI  22
MONTICELLO     CLOUDY    34  25  69 N15G21    30.05F WCI  24
$$

NYZ026>034-041>043-050800-
NORTH


CITY           SKY/WX    TMP DP  RH WIND       PRES   REMARKS
WATERTOWN      CLOUDY    25  20  81 SE3       30.18F
FORT DRUM      NOT AVBL
MASSENA        CLEAR     28  17  63 W3        30.21R
SARANAC LAKE   CLOUDY    28  21  75 W5        30.08R WCI  23
PLATTSBURGH    CLOUDY    33  24  69 CALM      30.15R
$$

NYZ001>004-010>016-019>021-050800-
WEST


CITY           SKY/WX    TMP DP  RH WIND       PRES   REMARKS
NIAGARA FALLS  FLURRIES  32  25  75 N5        30.20R WCI  27
BUFFALO        FLURRIES  32  27  81 N5        30.19S WCI  27
DUNKIRK        LGT SNOW  30  29  96 W6        30.20F VSB 1   WCI  24
JAMESTOWN      CLOUDY    27  21  80 W7        30.13F WCI  19
WELLSVILLE     CLOUDY    28  22  78 N9        30.08F WCI  19
ROCHESTER      CLOUDY    32  24  72 N6        30.19F WCI  26
PENN YAN       MOCLDY    32  24  72 NW5       30.14F WCI  27
$$

             KEY
       WCI = WIND CHILL INDEX
       VSB = VISIBILITY
       HX  = HEAT INDEX
$$




USA.gov is the U.S. government's official web portal to all federal, state and local government web resources and services.